Del Norte, CO

2:59 AM MST on February 09, 2016 (GMT -0700)
Wolf Creek Pass

Weather History for KCPW - May, 2013

Change the Weather History Date:

Thursday, May 9, 2013

  Actual Average (KALS) Record (KALS)
Temperature  
Mean Temperature 26 °F 49 °F  
Max Temperature 32 °F 67 °F 79 °F (1934)
Min Temperature 21 °F 32 °F 13 °F (1950)
Degree Days  
Heating Degree Days 38 16  
Month to date heating degree days 153  
Since 1 July heating degree days 8153  
Cooling Degree Days 0 0  
Month to date cooling degree days 0  
Year to date cooling degree days 0  
Moisture  
Dew Point 23 °F    
Average Humidity 92    
Maximum Humidity 100    
Minimum Humidity 69    
Precipitation  
Precipitation 0.02 in 0.02 in 0.71 in (1994)
Month to date precipitation 0.18  
Year to date precipitation 1.82  
Snow  
Snow 0.00 in 0.00 in 0.70 in (1952)
Month to date snowfall 0.5  
Since 1 July snowfall 27.2  
Snow Depth -    
Sea Level Pressure  
Sea Level Pressure 30.26 in    
Wind  
Wind Speed 9 mph (SE)    
Max Wind Speed 20 mph    
Max Gust Speed 26 mph    
Visibility 6 miles    
Events Fog , Snow , Thunderstorm    
T = Trace of Precipitation, MM = Missing Value Source: NWS Daily Summary

Daily Weather History Graph

Daily Weather History Graph

Search for Another Location

Airport or City:

Trip Planner

Search our weather history database for the weather conditions in past years. The results will help you decide how hot, cold, wet, or windy it might be!

Date:

Astronomy

May. 09, 2013 Rise Set
Actual Time 6:03 AM MDT 8:04 PM MDT
Civil Twilight 5:34 AM MDT 8:33 PM MDT
Nautical Twilight 4:59 AM MDT 9:08 PM MDT
Astronomical Twilight 4:21 AM MDT 9:46 PM MDT
Moon 5:49 AM MDT 8:02 PM MDT
Length of Visible Light 14h 58m
Length of Day
14h 01m
Waning Crescent, 0% of the Moon is Illuminated
May 9
Waning Crescent
May 9
New
May 17
First Quarter
May 24
Full
May 31
Last Quarter

Hourly Weather History & Observations

Time (MDT) Temp. Windchill Dew Point Humidity Pressure Visibility Wind Dir Wind Speed Gust Speed Precip Events Conditions
12:01 AM 21.2 °F 10.1 °F 19.4 °F 93% 30.22 in 10.0 mi SW 10.4 mph - N/A   Clear
12:21 AM 21.2 °F 9.5 °F 19.4 °F 93% 30.22 in 10.0 mi SW 11.5 mph - N/A   Clear
12:41 AM 21.2 °F 9.5 °F 19.4 °F 93% 30.22 in 10.0 mi SW 11.5 mph - N/A   Scattered Clouds
1:01 AM 21.2 °F 10.1 °F 19.4 °F 93% 30.22 in 10.0 mi SW 10.4 mph - N/A   Mostly Cloudy
1:21 AM 21.2 °F 9.5 °F 19.4 °F 93% 30.21 in 10.0 mi SW 11.5 mph - N/A   Overcast
1:41 AM 21.2 °F 10.1 °F 21.2 °F 100% 30.20 in 10.0 mi SW 10.4 mph - N/A   Overcast
2:01 AM 23.0 °F 12.4 °F 21.2 °F 93% 30.20 in 10.0 mi WSW 10.4 mph - N/A   Overcast
2:21 AM 21.2 °F 10.1 °F 21.2 °F 100% 30.20 in 10.0 mi SW 10.4 mph - N/A   Mostly Cloudy
2:41 AM 21.2 °F 8.9 °F 21.2 °F 100% 30.19 in 10.0 mi SW 12.7 mph - N/A   Scattered Clouds
3:01 AM 21.2 °F 9.5 °F 21.2 °F 100% 30.19 in 10.0 mi SW 11.5 mph - N/A   Scattered Clouds
3:21 AM 21.2 °F 9.5 °F 21.2 °F 100% 30.19 in 10.0 mi SW 11.5 mph - N/A   Mostly Cloudy
3:41 AM 21.2 °F 10.1 °F 21.2 °F 100% 30.19 in 10.0 mi SW 10.4 mph - N/A   Overcast
4:01 AM 21.2 °F 9.5 °F 21.2 °F 100% 30.19 in 10.0 mi SW 11.5 mph - N/A   Overcast
4:21 AM 21.2 °F 10.1 °F 21.2 °F 100% 30.19 in 10.0 mi SW 10.4 mph - N/A   Overcast
4:41 AM 21.2 °F 10.1 °F 21.2 °F 100% 30.19 in 10.0 mi SW 10.4 mph - N/A   Overcast
5:01 AM 21.2 °F 9.5 °F 19.4 °F 93% 30.19 in 10.0 mi SW 11.5 mph - N/A   Overcast
5:20 AM 21.2 °F 11.7 °F 21.2 °F 100% 30.19 in 10.0 mi SW 8.1 mph - N/A   Overcast
6:01 AM 21.2 °F 10.9 °F 19.4 °F 93% 30.19 in 7.0 mi SW 9.2 mph - N/A Snow Light Snow
6:21 AM 21.2 °F 10.9 °F 19.4 °F 93% 30.19 in 4.0 mi SW 9.2 mph - N/A Snow Light Snow
6:41 AM 21.2 °F 12.6 °F 19.4 °F 93% 30.19 in 5.0 mi SW 6.9 mph - N/A Snow Light Snow
7:01 AM 21.2 °F 13.6 °F 19.4 °F 93% 30.20 in 5.0 mi SW 5.8 mph - N/A Snow Light Snow
7:21 AM 21.2 °F 14.9 °F 21.2 °F 100% 30.20 in 3.0 mi SW 4.6 mph - N/A Snow Light Snow
7:41 AM 21.2 °F 13.6 °F 21.2 °F 100% 30.22 in 1.8 mi SSW 5.8 mph - N/A Snow Light Snow
8:01 AM 21.2 °F 14.9 °F 21.2 °F 100% 30.22 in 1.2 mi SSW 4.6 mph - N/A Snow Light Snow
8:41 AM 23.0 °F - 23.0 °F 100% 30.22 in 1.2 mi Calm Calm - N/A Snow Light Snow
9:21 AM 23.0 °F - 23.0 °F 100% 30.23 in 2.0 mi Calm Calm - N/A Snow Light Snow
10:01 AM 26.6 °F 22.6 °F 23.0 °F 86% 30.24 in 4.0 mi ENE 3.5 mph - N/A   Overcast
10:21 AM 26.6 °F 22.6 °F 23.0 °F 86% 30.24 in 7.0 mi ESE 3.5 mph - N/A   Overcast
10:41 AM 26.6 °F - 23.0 °F 86% 30.24 in 2.5 mi Calm Calm - N/A   Overcast
11:41 AM 28.4 °F - 21.2 °F 74% 30.27 in 5.0 mi Calm Calm - N/A   Haze
12:01 PM 30.2 °F 24.3 °F 24.8 °F 80% 30.26 in 2.0 mi SSW 5.8 mph - N/A Snow , Thunderstorm Light Thunderstorms and Snow
12:21 PM 30.2 °F 25.4 °F 23.0 °F 75% 30.27 in 5.0 mi SE 4.6 mph - N/A Snow , Thunderstorm Light Thunderstorms and Snow
12:41 PM 30.2 °F 25.4 °F 26.6 °F 86% 30.27 in 5.0 mi South 4.6 mph - N/A   Haze
1:01 PM 28.4 °F 22.2 °F 26.6 °F 93% 30.27 in 1.0 mi ENE 5.8 mph - N/A Snow Light Snow
1:21 PM 26.6 °F 15.7 °F 26.6 °F 100% 30.27 in 0.2 mi East 12.7 mph - N/A Snow Light Snow
1:41 PM 26.6 °F 18.2 °F 26.6 °F 100% 30.27 in 0.2 mi East 8.1 mph - N/A Snow Snow
2:01 PM 28.4 °F 21.2 °F 24.8 °F 86% 30.28 in 2.0 mi ENE 6.9 mph - N/A Snow Light Snow
2:21 PM 30.2 °F 25.4 °F 26.6 °F 86% 30.28 in 7.0 mi East 4.6 mph - N/A Thunderstorm Thunderstorm
2:41 PM 28.4 °F 19.7 °F 26.6 °F 93% 30.28 in 1.2 mi NNE 9.2 mph - N/A Snow Light Snow
3:01 PM 26.6 °F 15.7 °F 26.6 °F 100% 30.29 in 1.5 mi NE 12.7 mph 20.7 mph N/A Snow , Thunderstorm Light Thunderstorms and Snow
3:21 PM 26.6 °F 15.2 °F 26.6 °F 100% 30.29 in 4.0 mi NNE 13.8 mph 21.9 mph 0.01 in Snow Light Snow
3:41 PM 28.4 °F 19.1 °F 24.8 °F 86% 30.28 in 2.0 mi NNE 10.4 mph 24.2 mph 0.02 in Snow Light Snow
4:01 PM 32.0 °F 22.5 °F 24.8 °F 75% 30.27 in 10.0 mi NE 12.7 mph 19.6 mph N/A Thunderstorm Overcast
4:21 PM 32.0 °F 27.5 °F 23.0 °F 69% 30.28 in 10.0 mi NE 4.6 mph - N/A   Overcast
4:41 PM 30.2 °F 25.4 °F 28.4 °F 93% 30.28 in 0.2 mi SE 4.6 mph - N/A Snow Light Snow
5:01 PM 28.4 °F 21.2 °F 26.6 °F 93% 30.28 in 0.5 mi South 6.9 mph - N/A Snow , Thunderstorm Light Thunderstorms and Snow
5:21 PM 28.4 °F 24.6 °F 28.4 °F 100% 30.29 in 0.8 mi SW 3.5 mph - N/A Snow , Thunderstorm Light Thunderstorms and Snow
5:41 PM 30.2 °F - 28.4 °F 93% 30.29 in 4.0 mi Calm Calm - N/A   Overcast
6:01 PM 30.2 °F 26.7 °F 28.4 °F 93% 30.29 in 10.0 mi ENE 3.5 mph - N/A Thunderstorm Thunderstorm
6:21 PM 30.2 °F 22.6 °F 26.6 °F 86% 30.29 in 10.0 mi NE 8.1 mph - N/A Thunderstorm Thunderstorm
6:41 PM 30.2 °F 21.9 °F 23.0 °F 75% 30.29 in 10.0 mi ENE 9.2 mph - N/A   Overcast
7:01 PM 30.2 °F 23.4 °F 23.0 °F 75% 30.29 in 10.0 mi ENE 6.9 mph - N/A   Overcast
7:21 PM 30.2 °F 21.3 °F 23.0 °F 75% 30.30 in 10.0 mi ENE 10.4 mph - N/A Thunderstorm Thunderstorm
7:41 PM 28.4 °F 20.4 °F 23.0 °F 80% 30.31 in 10.0 mi ENE 8.1 mph - N/A   Overcast
8:01 PM 28.4 °F 19.7 °F 23.0 °F 80% 30.31 in 7.0 mi NE 9.2 mph - N/A Snow Light Snow
8:21 PM 26.6 °F 16.8 °F 24.8 °F 93% 30.32 in 5.0 mi ENE 10.4 mph - N/A Snow , Thunderstorm Light Thunderstorms and Snow
8:41 PM 26.6 °F 16.8 °F 26.6 °F 100% 30.32 in 10.0 mi ENE 10.4 mph - N/A   Overcast
9:01 PM 26.6 °F 15.7 °F 26.6 °F 100% 30.33 in 1.0 mi ENE 12.7 mph - N/A Snow Light Snow
9:21 PM 26.6 °F 17.5 °F 26.6 °F 100% 30.34 in 0.5 mi NE 9.2 mph - N/A Fog Light Freezing Fog
9:41 PM 24.8 °F 12.4 °F 24.8 °F 100% 30.34 in 5.0 mi NE 15.0 mph - N/A   Mostly Cloudy
10:21 PM 23.0 °F 8.3 °F 23.0 °F 100% 30.34 in 10.0 mi NE 19.6 mph 26.5 mph N/A   Overcast
10:41 PM 23.0 °F 9.2 °F 23.0 °F 100% 30.34 in 10.0 mi NE 17.3 mph - N/A   Mostly Cloudy
11:01 PM 23.0 °F 10.6 °F 23.0 °F 100% 30.35 in 10.0 mi ENE 13.8 mph - N/A   Mostly Cloudy
11:21 PM 23.0 °F 10.6 °F 21.2 °F 93% 30.35 in 10.0 mi NE 13.8 mph - N/A   Mostly Cloudy